Flag for Gambia Weather past 2 weeks in Serekunda, Gambia

Now
90 °F

Scattered clouds.


Feels Like: 100 °F
Forecast: N/A
Wind: 13 mph from North

Location: Banjul / Yundum

Current Time: Oct 25, 2014 at 4:30:37 PM

Latest Report: Oct 25, 2014 at 4:00 PM


Visibility: N/A

Pressure: 29.83 "Hg

Humidity: 63%

Dew point: 75 °F

Location of SerekundaLocation

Historic Weather in Serekunda — Graph

°F

Serekunda temperature yesterday

Maximum temperature yesterday: 91 °F (at 2:00 PM)
Minimum temperature yesterday: 77 °F (at 1:00 AM)
Average temperature yesterday: 83 °F

Past Weeks' High & Low Weather Summary

 TemperatureHumidityPressure
High97 °F (Oct 16, 6:00 PM)100% (Oct 11, 4:00 AM)29.95 "Hg (Oct 11, 4:00 AM)
Low73 °F (Oct 14, 8:00 PM)41% (Oct 21, 3:00 PM)29.80 "Hg (Oct 10, 3:00 PM)
Average83 °F81%29.86 "Hg
* Reported Oct 10 3:00 PM — Oct 25 3:00 PM, Serekunda, Weather by CustomWeather, © 2014

Note: Actual official high and low records may vary slightly from our data, if they occured in-between our weather recording intervals... More about our weather records

Advertising

Serekunda weather history for previous 24 hours

 ConditionsComfort  
Time TempWeatherWind HumidityBarometerVisibility
3:00 PM
Oct 25
90 °FScattered clouds.12 mph67%29.83 "HgN/A
2:00 PM91 °FScattered clouds.9 mph63%29.83 "HgN/A
1:00 PM90 °FBroken clouds.6 mph63%29.83 "HgN/A
12:00 PM90 °FScattered clouds.12 mph63%29.86 "HgN/A
11:00 AM88 °FPartly sunny.5 mph66%29.86 "HgN/A
10:00 AM86 °FPartly sunny.6 mph75%29.86 "HgN/A
9:00 AM82 °FPartly sunny.3 mph79%29.86 "HgN/A
8:00 AM77 °FScattered clouds.No wind94%29.83 "HgN/A
7:00 AM75 °FScattered clouds.No wind94%29.83 "HgN/A
6:00 AM75 °FPassing clouds.No wind94%29.80 "Hg6 mi
5:00 AM75 °FPassing clouds.No wind100%29.80 "HgN/A
4:00 AM77 °FPassing clouds.No wind94%29.80 "HgN/A
3:00 AM77 °FPassing clouds.No wind94%29.83 "HgN/A
2:00 AM77 °FPassing clouds.5 mph94%29.83 "HgN/A
1:00 AM77 °FPassing clouds.No wind89%29.83 "HgN/A
12:00 AM77 °FPassing clouds.No wind94%29.86 "HgN/A
11:00 PM
Oct 24
79 °FWarm.No wind89%29.86 "HgN/A
10:00 PM79 °FPassing clouds.No wind94%29.83 "HgN/A
9:00 PM81 °FPassing clouds.No wind84%29.83 "HgN/A
8:00 PM82 °FPassing clouds.7 mph79%29.83 "HgN/A
7:00 PM82 °FPassing clouds.No wind89%29.83 "HgN/A
6:00 PM86 °FPartly sunny.8 mph70%29.83 "HgN/A
5:00 PM90 °FScattered clouds.10 mph63%29.83 "HgN/A
4:00 PM90 °FPartly sunny.12 mph63%29.83 "HgN/A
Weather by CustomWeather, © 2014

See weather overviewHow to use our weather pages